Location: Carrières
(48.9495°N, 2.0407°E)
Time: 12:06:00
(UTC+00:00)

Cosmos 1656 - Pass Details

Date: 28 January 2023
Orbit: 798 x 848 km, 71.1° (Epoch: 21 March)

Event Time Altitude Azimuth Distance (km) Brightness Sun altitude
Rises 17:14:08 0° 218° (SW) 3,333 8.0 -5.6°
Reaches altitude 10° 17:16:36 10° 222° (SW) 2,397 7.2 -6.0°
Maximum altitude 17:22:00 60° 302° (WNW) 923 4.2 -6.8°
Drops below altitude 10° 17:27:24 10° 23° (NNE) 2,388 5.7 -7.7°
Sets 17:29:51 0° 27° (NNE) 3,319 6.4 -8.0°
